M I D A S
Marine Information and Data Acquisition System
Tripno 1100 of the Zeeleeuw from 2006-05-08 07:10:12 to 2006-05-08 14:33:40
Back to CruiseResearch ActivitiesStationsMapUnderway DataData graphs

EquipmentUnitsComments
TimeDGPSUTC
LatitudeDGPSDM.mWGS84
LongitudeDGPSDM.mWGS84
SpeedMeteo Stationm/sRelative wind speed
DirectionMeteo StationdegRelative wind direction
TemperatureMeteo Stationdeg CelciusAir temperature
PressureMeteo StationPaAtmospheric pressure
HumidityMeteo Station%Relative humidity
Missing or incorrect values are displayed as -999
Metereological data collected by the RV Zeeleeuw from 2006-05-08 07:11:03 to 2006-05-08 14:51:04
Time Latitude Longitude Speed Direction Temperature Pressure Humidity
2006-05-08 07:12 51°13.608 2°56.028 -999 6 16.4 101020 52
2006-05-08 07:13 51°13.631 2°55.926 -999 350 16.4 101030 52
2006-05-08 07:14 51°13.68 2°55.824 -999 333 16.4 101030 53
2006-05-08 07:15 51°13.72 2°55.735 -999 343 16.5 101020 52
2006-05-08 07:16 51°13.729 2°55.719 -999 37 16.5 101020 51
2006-05-08 07:17 51°13.728 2°55.713 -999 102 16.4 101010 52
2006-05-08 07:18 51°13.751 2°55.709 -999 130 16.4 101020 52
2006-05-08 07:19 51°13.827 2°55.645 -999 86 16.4 101020 51
2006-05-08 07:20 51°13.942 2°55.554 -999 122 16.4 101030 51
2006-05-08 07:21 51°14.056 2°55.471 -999 121 16.4 101030 51
2006-05-08 07:22 51°14.187 2°55.367 -999 125 16.4 101020 51
2006-05-08 07:23 51°14.306 2°55.181 -999 144 16.4 101020 51
2006-05-08 07:24 51°14.425 2°54.948 -999 100 16.4 101020 51
2006-05-08 07:25 51°14.599 2°54.804 -999 99 16.3 101010 52
2006-05-08 07:26 51°14.774 2°54.612 -999 103 16.2 101020 53
2006-05-08 07:27 51°14.955 2°54.423 -999 88 16.2 101020 53
2006-05-08 07:28 51°15.14 2°54.245 -999 94 16 101020 55
2006-05-08 07:29 51°15.321 2°54.061 -999 105 15.9 101020 56
2006-05-08 07:30 51°15.511 2°53.913 -999 93 15.9 101010 55
2006-05-08 07:31 51°15.708 2°53.756 -999 96 15.8 101010 57
2006-05-08 07:32 51°15.901 2°53.601 -999 95 15.7 101020 56
2006-05-08 07:33 51°16.093 2°53.447 -999 102 15.7 101020 56
2006-05-08 07:34 51°16.287 2°53.298 -999 107 15.6 101020 57
2006-05-08 07:35 51°16.478 2°53.148 -999 118 15.5 101010 57
2006-05-08 07:36 51°16.666 2°52.997 -999 107 15.5 101010 56
2006-05-08 07:37 51°16.86 2°52.844 -999 110 15.5 101020 56
2006-05-08 07:38 51°17.054 2°52.701 -999 112 15.5 101020 55
2006-05-08 07:39 51°17.254 2°52.578 -999 101 15.6 101020 54
2006-05-08 07:40 51°17.456 2°52.464 -999 101 15.6 101020 57
2006-05-08 07:41 51°17.672 2°52.406 -999 81 15.5 101010 57
2006-05-08 07:42 51°17.889 2°52.376 -999 88 15.4 101010 58
2006-05-08 07:43 51°18.107 2°52.349 -999 87 15.2 101000 58
2006-05-08 07:44 51°18.326 2°52.355 -999 82 15.1 101010 59
2006-05-08 07:45 51°18.541 2°52.355 -999 77 15.1 101010 60
2006-05-08 07:46 51°18.761 2°52.355 -999 78 14.9 101010 61
2006-05-08 07:47 51°18.985 2°52.356 -999 82 14.9 101010 59
2006-05-08 07:48 51°19.21 2°52.353 -999 83 14.9 101000 60
2006-05-08 07:49 51°19.425 2°52.347 -999 80 14.9 101010 61
2006-05-08 07:50 51°19.65 2°52.338 -999 83 14.8 101020 61
2006-05-08 07:51 51°19.873 2°52.337 -999 88 14.8 101020 61
2006-05-08 07:52 51°20.097 2°52.333 -999 87 14.8 101020 61
2006-05-08 07:53 51°20.321 2°52.33 -999 83 14.8 101020 61
2006-05-08 07:54 51°20.545 2°52.331 -999 79 14.8 101020 62
2006-05-08 07:55 51°20.769 2°52.335 -999 82 14.7 101010 62
2006-05-08 07:56 51°20.997 2°52.342 -999 82 14.7 101030 62
2006-05-08 07:57 51°21.216 2°52.342 -999 80 14.7 101030 62
2006-05-08 07:58 51°21.443 2°52.345 -999 92 14.6 101030 63
2006-05-08 07:59 51°21.662 2°52.346 -999 78 14.7 101030 62
2006-05-08 08:00 51°21.889 2°52.343 -999 82 14.6 101030 62
2006-05-08 08:01 51°22.11 2°52.344 -999 79 14.6 101030 63
2006-05-08 08:02 51°22.338 2°52.342 -999 71 14.5 101020 63
2006-05-08 08:03 51°22.555 2°52.343 -999 75 14.4 101010 64
2006-05-08 08:04 51°22.783 2°52.35 -999 80 14.4 101020 64
2006-05-08 08:05 51°23.013 2°52.357 -999 79 14.4 101030 64
2006-05-08 08:06 51°23.237 2°52.362 -999 75 14.4 101030 64
2006-05-08 08:07 51°23.47 2°52.37 -999 75 14.4 101020 64
2006-05-08 08:08 51°23.7 2°52.378 -999 79 14.4 101030 64
2006-05-08 08:09 51°23.925 2°52.386 -999 71 14.4 101040 64
2006-05-08 08:10 51°24.145 2°52.389 -999 68 14.4 101040 64
2006-05-08 08:11 51°24.373 2°52.396 -999 73 14.2 101050 65
2006-05-08 08:12 51°24.587 2°52.404 -999 74 14.1 101030 66
2006-05-08 08:13 51°24.813 2°52.407 -999 67 14 101040 66
2006-05-08 08:14 51°25.031 2°52.411 -999 67 14 101030 67
2006-05-08 08:15 51°25.254 2°52.415 -999 74 13.9 101040 67
2006-05-08 08:16 51°25.477 2°52.48 -999 62 13.9 101040 67
2006-05-08 08:17 51°25.69 2°52.584 -999 61 14 101020 66
2006-05-08 08:18 51°25.902 2°52.687 -999 66 14 101020 66
2006-05-08 08:19 51°26.123 2°52.794 -999 61 13.9 101030 66
2006-05-08 08:20 51°26.337 2°52.897 -999 62 13.9 101020 66
2006-05-08 08:21 51°26.562 2°52.995 -999 63 13.9 101030 66
2006-05-08 08:22 51°26.771 2°53.088 -999 64 13.9 101020 66
2006-05-08 08:23 51°26.988 2°53.185 -999 62 13.8 101040 67
2006-05-08 08:24 51°27.215 2°53.286 -999 57 13.8 101020 66
2006-05-08 08:25 51°27.425 2°53.378 -999 58 13.7 101040 67
2006-05-08 08:26 51°27.652 2°53.48 -999 61 13.7 101010 67
2006-05-08 08:27 51°27.871 2°53.581 -999 60 13.7 101020 67
2006-05-08 08:28 51°28.086 2°53.683 -999 58 13.6 101020 67
2006-05-08 08:29 51°28.305 2°53.784 -999 59 13.6 101040 68
2006-05-08 08:30 51°28.527 2°53.883 -999 59 13.6 101020 68
2006-05-08 08:31 51°28.74 2°53.976 -999 58 13.5 101030 69
2006-05-08 08:32 51°28.96 2°54.08 -999 58 13.4 101040 70
2006-05-08 08:33 51°29.169 2°54.173 -999 57 13.3 101040 71
2006-05-08 08:34 51°29.391 2°54.275 -999 59 13.2 101030 72
2006-05-08 08:35 51°29.596 2°54.366 -999 56 13.2 101050 72
2006-05-08 08:36 51°29.812 2°54.463 -999 60 13.2 101040 72
2006-05-08 08:37 51°30.028 2°54.564 -999 56 13.2 101030 72
2006-05-08 08:38 51°30.253 2°54.665 -999 62 13.2 101030 72
2006-05-08 08:39 51°30.47 2°54.77 -999 58 13.2 101040 72
2006-05-08 08:40 51°30.686 2°54.877 -999 57 13.1 101030 72
2006-05-08 08:41 51°30.894 2°54.977 -999 62 13.1 101030 72
2006-05-08 08:42 51°31.112 2°55.082 -999 58 13.2 101030 71
2006-05-08 08:43 51°31.331 2°55.186 -999 60 13.2 101040 71
2006-05-08 08:44 51°31.56 2°55.292 -999 62 13.2 101040 71
2006-05-08 08:45 51°31.778 2°55.396 -999 62 13.2 101040 70
2006-05-08 08:46 51°31.988 2°55.497 -999 64 13.3 101030 70
2006-05-08 08:47 51°32.199 2°55.596 -999 64 13.2 101040 70
2006-05-08 08:48 51°32.414 2°55.701 -999 60 13.2 101030 70
2006-05-08 08:49 51°32.632 2°55.804 -999 63 13.3 101030 70
2006-05-08 08:50 51°32.812 2°55.895 -999 70 13.3 101040 69
2006-05-08 08:51 51°32.945 2°55.97 -999 58 13.3 101050 69
2006-05-08 08:52 51°33.011 2°56.06 -999 41 13.4 101050 68
2006-05-08 08:53 51°33.045 2°56.124 -999 35 13.4 101070 68
2006-05-08 08:54 51°33.071 2°56.157 -999 52 13.5 101060 68
2006-05-08 08:55 51°33.107 2°56.181 -999 100 13.5 101050 68
2006-05-08 08:56 51°33.153 2°56.172 -999 146 13.4 101060 68
2006-05-08 08:57 51°33.19 2°56.133 -999 179 13.5 101080 68
2006-05-08 08:58 51°33.205 2°56.088 -999 234 13.7 101090 67
2006-05-08 08:59 51°33.205 2°56.057 -999 269 13.7 101090 67
2006-05-08 09:00 51°33.198 2°56.041 -999 271 13.7 101090 67
2006-05-08 09:01 51°33.187 2°56.026 -999 275 13.7 101090 67
2006-05-08 09:02 51°33.171 2°56.018 -999 288 13.7 101090 67
2006-05-08 09:03 51°33.157 2°56.019 -999 293 13.7 101090 67
2006-05-08 09:04 51°33.139 2°56.025 -999 289 13.7 101090 67
2006-05-08 09:05 51°33.107 2°56.026 -999 289 13.7 101080 68
2006-05-08 09:06 51°33.074 2°56.014 -999 271 13.7 101080 68
2006-05-08 09:07 51°33.07 2°56.01 -999 283 13.6 101090 68
2006-05-08 09:08 51°33.071 2°56.013 -999 296 13.6 101080 68
2006-05-08 09:09 51°33.075 2°56.016 -999 291 13.6 101090 68
2006-05-08 09:10 51°33.081 2°56.02 -999 297 13.6 101090 69
2006-05-08 09:11 51°33.087 2°56.025 -999 302 13.6 101100 69
2006-05-08 09:12 51°33.096 2°56.028 -999 295 13.6 101090 69
2006-05-08 09:13 51°33.104 2°56.031 -999 307 13.6 101090 69
2006-05-08 09:14 51°33.113 2°56.037 -999 306 13.6 101090 69
2006-05-08 09:15 51°33.123 2°56.039 -999 300 13.6 101080 69
2006-05-08 09:16 51°33.137 2°56.037 -999 299 13.6 101080 69
2006-05-08 09:17 51°33.151 2°56.038 -999 291 13.6 101090 69
2006-05-08 09:18 51°33.164 2°56.038 -999 285 13.6 101090 69
2006-05-08 09:19 51°33.176 2°56.039 -999 296 13.6 101090 69
2006-05-08 09:20 51°33.187 2°56.041 -999 293 13.5 101080 69
2006-05-08 09:21 51°33.199 2°56.042 -999 293 13.6 101090 69
2006-05-08 09:22 51°33.21 2°56.045 -999 295 13.5 101090 70
2006-05-08 09:23 51°33.22 2°56.05 -999 307 13.5 101090 70
2006-05-08 09:24 51°33.213 2°56.073 -999 334 13.5 101080 70
2006-05-08 09:25 51°33.14 2°56.198 -999 341 13.5 101060 70
2006-05-08 09:26 51°32.999 2°56.376 -999 346 13.5 101050 70
2006-05-08 09:27 51°32.843 2°56.566 -999 339 13.5 101040 70
2006-05-08 09:28 51°32.671 2°56.736 -999 338 13.5 101050 70
2006-05-08 09:29 51°32.499 2°56.893 -999 344 13.5 101060 71
2006-05-08 09:30 51°32.329 2°57.068 -999 348 13.4 101050 71
2006-05-08 09:31 51°32.188 2°57.305 -999 353 13.4 101060 71
2006-05-08 09:32 51°32.047 2°57.551 -999 350 13.5 101050 70
2006-05-08 09:33 51°31.904 2°57.799 -999 350 13.6 101050 69
2006-05-08 09:34 51°31.766 2°58.04 -999 349 13.7 101060 69
2006-05-08 09:35 51°31.625 2°58.277 -999 352 13.7 101060 69
2006-05-08 09:36 51°31.484 2°58.513 -999 348 13.8 101060 69
2006-05-08 09:37 51°31.35 2°58.742 -999 357 13.9 101050 67
2006-05-08 09:38 51°31.204 2°58.985 -999 352 14.1 101060 66
2006-05-08 09:39 51°31.069 2°59.218 -999 353 14.2 101060 65
2006-05-08 09:40 51°30.928 2°59.46 -999 354 14.3 101050 65
2006-05-08 09:41 51°30.792 2°59.694 -999 353 14.4 101060 65
2006-05-08 09:42 51°30.652 2°59.928 -999 353 14.5 101050 64
2006-05-08 09:43 51°30.505 3°0.174 -999 354 14.6 101070 63
2006-05-08 09:44 51°30.369 3°0.407 -999 355 14.8 101050 61
2006-05-08 09:45 51°30.223 3°0.652 -999 353 14.9 101050 61
2006-05-08 09:46 51°30.075 3°0.883 -999 356 14.8 101060 63
2006-05-08 09:47 51°29.926 3°1.112 -999 358 14.7 101060 63
2006-05-08 09:48 51°29.78 3°1.335 -999 353 14.7 101050 63
2006-05-08 09:49 51°29.634 3°1.565 -999 360 14.8 101050 62
2006-05-08 09:50 51°29.493 3°1.794 -999 357 14.8 101040 62
2006-05-08 09:51 51°29.346 3°2.023 -999 -999 14.9 101050 62
2006-05-08 09:52 51°29.209 3°2.246 -999 -999 14.8 101060 62
2006-05-08 09:53 51°29.061 3°2.477 -999 -999 14.8 101060 63
2006-05-08 09:54 51°28.916 3°2.703 -999 360 14.8 101060 63
2006-05-08 09:55 51°28.762 3°2.941 -999 357 14.8 101060 63
2006-05-08 09:56 51°28.617 3°3.159 -999 360 14.9 101050 62
2006-05-08 09:57 51°28.446 3°3.352 -999 354 14.9 101060 62
2006-05-08 09:58 51°28.292 3°3.523 -999 355 14.9 101060 63
2006-05-08 09:59 51°28.24 3°3.624 -999 27 14.9 101090 63
2006-05-08 10:00 51°28.252 3°3.677 -999 61 14.9 101090 63
2006-05-08 10:01 51°28.282 3°3.735 -999 93 14.7 101090 65
2006-05-08 10:02 51°28.323 3°3.771 -999 140 14.5 101110 65
2006-05-08 10:03 51°28.361 3°3.775 -999 200 14.6 101110 64
2006-05-08 10:04 51°28.386 3°3.76 -999 248 14.8 101110 63
2006-05-08 10:05 51°28.392 3°3.743 -999 286 14.8 101110 64
2006-05-08 10:06 51°28.383 3°3.736 -999 304 14.7 101110 65
2006-05-08 10:07 51°28.368 3°3.734 -999 315 14.6 101110 65
2006-05-08 10:08 51°28.348 3°3.74 -999 326 14.7 101110 64
2006-05-08 10:09 51°28.328 3°3.762 -999 336 14.8 101100 64
2006-05-08 10:10 51°28.307 3°3.791 -999 340 14.7 101100 65
2006-05-08 10:11 51°28.29 3°3.835 -999 10 14.7 101100 66
2006-05-08 10:12 51°28.293 3°3.922 -999 70 14.6 101100 66
2006-05-08 10:13 51°28.348 3°3.986 -999 146 14.5 101100 67
2006-05-08 10:14 51°28.401 3°3.952 -999 255 14.5 101110 67
2006-05-08 10:15 51°28.4 3°3.854 -999 314 14.5 101110 67
2006-05-08 10:16 51°28.354 3°3.736 -999 227 14.5 101100 68
2006-05-08 10:17 51°28.306 3°3.609 -999 330 14.4 101110 69
2006-05-08 10:18 51°28.262 3°3.546 -999 314 14.2 101110 71
2006-05-08 10:19 51°28.259 3°3.536 -999 42 14.1 101110 72
2006-05-08 10:20 51°28.263 3°3.534 -999 309 14.1 101120 72
2006-05-08 10:21 51°28.272 3°3.537 -999 306 14.1 101120 72
2006-05-08 10:22 51°28.284 3°3.543 -999 228 14.2 101110 72
2006-05-08 10:23 51°28.295 3°3.549 -999 309 14.2 101110 72
2006-05-08 10:24 51°28.308 3°3.557 -999 307 14.2 101120 72
2006-05-08 10:25 51°28.321 3°3.566 -999 304 14.2 101120 72
2006-05-08 10:26 51°28.336 3°3.576 -999 296 14.2 101120 72
2006-05-08 10:27 51°28.351 3°3.587 -999 304 14.2 101120 72
2006-05-08 10:28 51°28.369 3°3.599 -999 297 14.2 101110 72
2006-05-08 10:29 51°28.386 3°3.608 -999 296 14.3 101120 71
2006-05-08 10:30 51°28.402 3°3.616 -999 296 14.4 101120 71
2006-05-08 10:31 51°28.416 3°3.609 -999 265 14.4 101120 71
2006-05-08 10:32 51°28.467 3°3.57 -999 195 14.4 101130 71
2006-05-08 10:33 51°28.537 3°3.667 -999 82 14.3 101110 71
2006-05-08 10:34 51°28.495 3°3.87 -999 35 14.2 101100 72
2006-05-08 10:35 51°28.378 3°4.142 -999 31 14.1 101090 73
2006-05-08 10:36 51°28.242 3°4.411 -999 33 14.1 101090 74
2006-05-08 10:37 51°28.113 3°4.683 -999 34 14 101100 75
2006-05-08 10:38 51°27.996 3°4.959 -999 30 13.9 101090 77
2006-05-08 10:39 51°27.867 3°5.238 -999 34 13.8 101090 80
2006-05-08 10:40 51°27.741 3°5.506 -999 32 13.8 101100 81
2006-05-08 10:41 51°27.62 3°5.775 -999 31 13.7 101090 81
2006-05-08 10:42 51°27.491 3°6.052 -999 35 13.7 101090 82
2006-05-08 10:43 51°27.364 3°6.328 -999 37 13.8 101090 82
2006-05-08 10:44 51°27.243 3°6.605 -999 30 13.7 101100 82
2006-05-08 10:45 51°27.119 3°6.882 -999 31 13.6 101100 83
2006-05-08 10:46 51°26.99 3°7.159 -999 28 13.7 101090 83
2006-05-08 10:47 51°26.865 3°7.431 -999 30 13.7 101100 83
2006-05-08 10:48 51°26.742 3°7.708 -999 34 13.7 101090 84
2006-05-08 10:49 51°26.628 3°7.99 -999 32 13.7 101100 84
2006-05-08 10:50 51°26.512 3°8.269 -999 32 13.7 101100 84
2006-05-08 10:51 51°26.447 3°8.379 -999 20 13.7 101110 84
2006-05-08 10:52 51°26.411 3°8.438 -999 33 13.7 101110 84
2006-05-08 10:53 51°26.391 3°8.498 -999 39 13.8 101100 84
2006-05-08 10:54 51°26.385 3°8.546 -999 55 13.8 101100 83
2006-05-08 10:55 51°26.389 3°8.606 -999 85 13.9 101100 83
2006-05-08 10:56 51°26.412 3°8.666 -999 122 13.8 101110 83
2006-05-08 10:57 51°26.445 3°8.707 -999 154 13.8 101110 83
2006-05-08 10:58 51°26.484 3°8.73 -999 179 13.8 101110 83
2006-05-08 10:59 51°26.522 3°8.734 -999 232 13.9 101110 83
2006-05-08 11:00 51°26.552 3°8.723 -999 257 13.9 101110 82
2006-05-08 11:01 51°26.572 3°8.704 -999 287 13.9 101100 82
2006-05-08 11:02 51°26.579 3°8.685 -999 228 13.9 101110 81
2006-05-08 11:03 51°26.564 3°8.653 -999 330 13.8 101100 81
2006-05-08 11:04 51°26.524 3°8.564 -999 322 13.9 101100 81
2006-05-08 11:05 51°26.486 3°8.464 -999 318 13.9 101110 81
2006-05-08 11:06 51°26.477 3°8.427 -999 300 13.8 101110 81
2006-05-08 11:07 51°26.488 3°8.416 -999 285 13.8 101110 81
2006-05-08 11:08 51°26.504 3°8.407 -999 285 13.7 101110 81
2006-05-08 11:09 51°26.52 3°8.4 -999 277 13.7 101110 82
2006-05-08 11:10 51°26.537 3°8.395 -999 274 13.6 101110 83
2006-05-08 11:11 51°26.555 3°8.392 -999 273 13.5 101110 83
2006-05-08 11:12 51°26.572 3°8.391 -999 282 13.5 101120 84
2006-05-08 11:13 51°26.59 3°8.39 -999 281 13.4 101110 84
2006-05-08 11:14 51°26.608 3°8.39 -999 285 13.4 101110 85
2006-05-08 11:15 51°26.625 3°8.39 -999 289 13.3 101110 85
2006-05-08 11:16 51°26.643 3°8.391 -999 288 13.3 101120 86
2006-05-08 11:17 51°26.662 3°8.389 -999 292 13.2 101120 86
2006-05-08 11:18 51°26.65 3°8.364 -999 3 13.2 101110 87
2006-05-08 11:19 51°26.594 3°8.457 -999 52 13.1 101100 87
2006-05-08 11:20 51°26.544 3°8.727 -999 39 13.1 101100 88
2006-05-08 11:21 51°26.448 3°9.006 -999 36 13 101100 88
2006-05-08 11:22 51°26.346 3°9.288 -999 35 13.1 101090 88
2006-05-08 11:23 51°26.237 3°9.57 -999 31 13.2 101090 88
2006-05-08 11:24 51°26.126 3°9.855 -999 33 13.2 101100 88
2006-05-08 11:25 51°26.015 3°10.134 -999 39 13.3 101100 88
2006-05-08 11:26 51°25.909 3°10.408 -999 35 13.3 101100 88
2006-05-08 11:27 51°25.798 3°10.686 -999 38 13.3 101100 88
2006-05-08 11:28 51°25.711 3°10.979 -999 39 13.4 101100 88
2006-05-08 11:29 51°25.639 3°11.309 -999 44 13.4 101100 88
2006-05-08 11:30 51°25.569 3°11.617 -999 42 13.4 101100 87
2006-05-08 11:31 51°25.509 3°11.945 -999 57 13.4 101090 87
2006-05-08 11:32 51°25.518 3°12.298 -999 60 13.4 101090 87
2006-05-08 11:33 51°25.517 3°12.641 -999 52 13.3 101100 87
2006-05-08 11:34 51°25.52 3°12.987 -999 57 13.3 101100 88
2006-05-08 11:35 51°25.542 3°13.319 -999 60 13.3 101110 88
2006-05-08 11:36 51°25.561 3°13.659 -999 58 13.2 101110 89
2006-05-08 11:37 51°25.579 3°13.993 -999 61 13.1 101110 90
2006-05-08 11:38 51°25.599 3°14.336 -999 61 13.1 101110 90
2006-05-08 11:39 51°25.618 3°14.673 -999 64 13.1 101110 91
2006-05-08 11:40 51°25.636 3°15.015 -999 58 13.1 101110 91
2006-05-08 11:41 51°25.657 3°15.352 -999 62 13.1 101100 91
2006-05-08 11:42 51°25.678 3°15.684 -999 59 13 101110 91
2006-05-08 11:43 51°25.693 3°16.02 -999 60 13.1 101110 91
2006-05-08 11:44 51°25.683 3°16.353 -999 64 13.1 101100 91
2006-05-08 11:45 51°25.685 3°16.687 -999 62 13.2 101100 90
2006-05-08 11:46 51°25.709 3°17.019 -999 64 13.2 101110 90
2006-05-08 11:47 51°25.739 3°17.352 -999 57 13.2 101110 89
2006-05-08 11:48 51°25.772 3°17.685 -999 57 13.2 101110 89
2006-05-08 11:49 51°25.798 3°17.936 -999 82 13.2 101120 89
2006-05-08 11:50 51°25.811 3°18.045 -999 84 13.3 101120 89
2006-05-08 11:51 51°25.823 3°18.111 -999 111 13.4 101120 88
2006-05-08 11:52 51°25.852 3°18.154 -999 149 13.4 101120 88
2006-05-08 11:53 51°25.892 3°18.173 -999 177 13.5 101130 87
2006-05-08 11:54 51°25.934 3°18.166 -999 225 13.7 101130 87
2006-05-08 11:55 51°25.967 3°18.136 -999 250 13.7 101140 85
2006-05-08 11:56 51°25.991 3°18.095 -999 276 13.7 101130 85
2006-05-08 11:57 51°26.004 3°18.05 -999 300 13.7 101120 85
2006-05-08 11:58 51°26.009 3°18.003 -999 317 13.7 101120 85
2006-05-08 11:59 51°26.003 3°17.958 -999 334 13.8 101120 85
2006-05-08 12:00 51°25.987 3°17.931 -999 6 13.8 101110 85
2006-05-08 12:01 51°25.955 3°17.929 -999 8 13.8 101120 85
2006-05-08 12:02 51°25.921 3°17.922 -999 341 13.8 101110 85
2006-05-08 12:03 51°25.926 3°17.908 -999 323 13.7 101110 85
2006-05-08 12:04 51°25.937 3°17.893 -999 305 13.8 101120 85
2006-05-08 12:05 51°25.952 3°17.877 -999 274 13.8 101120 85
2006-05-08 12:06 51°25.969 3°17.862 -999 271 13.8 101130 85
2006-05-08 12:07 51°25.987 3°17.848 -999 260 13.8 101130 85
2006-05-08 12:08 51°26.005 3°17.833 -999 261 13.8 101140 84
2006-05-08 12:09 51°26.023 3°17.816 -999 263 13.8 101130 85
2006-05-08 12:10 51°26.04 3°17.8 -999 265 13.8 101140 85
2006-05-08 12:11 51°26.058 3°17.784 -999 270 13.8 101140 85
2006-05-08 12:12 51°26.076 3°17.766 -999 272 13.8 101130 84
2006-05-08 12:13 51°26.093 3°17.749 -999 278 13.8 101130 85
2006-05-08 12:14 51°26.11 3°17.732 -999 276 13.8 101140 85
2006-05-08 12:15 51°26.11 3°17.676 -999 331 13.9 101130 85
2006-05-08 12:16 51°25.991 3°17.571 -999 355 13.9 101100 84
2006-05-08 12:17 51°25.803 3°17.485 -999 356 13.9 101090 84
2006-05-08 12:18 51°25.614 3°17.387 -999 351 13.9 101100 84
2006-05-08 12:19 51°25.424 3°17.294 -999 353 13.9 101100 85
2006-05-08 12:20 51°25.236 3°17.204 -999 350 13.9 101080 85
2006-05-08 12:21 51°25.047 3°17.111 -999 351 14 101060 85
2006-05-08 12:22 51°24.855 3°17.009 -999 348 14 101090 85
2006-05-08 12:23 51°24.66 3°16.913 -999 352 14 101090 85
2006-05-08 12:24 51°24.474 3°16.778 -999 334 14 101090 85
2006-05-08 12:25 51°24.333 3°16.532 -999 331 14.1 101080 85
2006-05-08 12:26 51°24.193 3°16.275 -999 331 14.1 101090 85
2006-05-08 12:27 51°24.054 3°16.02 -999 331 14 101090 85
2006-05-08 12:28 51°23.916 3°15.763 -999 331 14 101100 86
2006-05-08 12:29 51°23.778 3°15.509 -999 331 13.9 101110 86
2006-05-08 12:30 51°23.645 3°15.264 -999 329 13.9 101100 87
2006-05-08 12:31 51°23.502 3°15.003 -999 328 13.9 101100 87
2006-05-08 12:32 51°23.379 3°14.731 -999 327 13.8 101090 87
2006-05-08 12:33 51°23.262 3°14.454 -999 227 13.8 101090 87
2006-05-08 12:34 51°23.186 3°14.173 -999 313 13.8 101110 88
2006-05-08 12:35 51°23.142 3°13.925 -999 304 13.8 101120 88
2006-05-08 12:36 51°23.103 3°13.749 -999 308 13.7 101110 88
2006-05-08 12:37 51°23.07 3°13.625 -999 311 13.8 101120 88
2006-05-08 12:38 51°22.964 3°13.519 -999 340 13.7 101120 89
2006-05-08 12:39 51°22.821 3°13.382 -999 338 13.7 101120 89
2006-05-08 12:40 51°22.678 3°13.246 -999 341 13.7 101090 89
2006-05-08 12:41 51°22.603 3°13.159 -999 333 13.7 101120 89
2006-05-08 12:42 51°22.605 3°13.137 -999 343 13.7 101130 90
2006-05-08 12:43 51°22.581 3°13.123 -999 28 13.7 101130 90
2006-05-08 12:44 51°22.569 3°13.158 -999 93 13.7 101130 90
2006-05-08 12:45 51°22.591 3°13.2 -999 137 13.7 101150 90
2006-05-08 12:46 51°22.627 3°13.207 -999 174 13.7 101150 91
2006-05-08 12:47 51°22.662 3°13.177 -999 230 13.7 101150 91
2006-05-08 12:48 51°22.684 3°13.128 -999 259 13.7 101140 91
2006-05-08 12:49 51°22.694 3°13.078 -999 275 13.7 101140 91
2006-05-08 12:50 51°22.697 3°13.033 -999 292 13.6 101140 91
2006-05-08 12:51 51°22.694 3°12.993 -999 310 13.6 101140 91
2006-05-08 12:52 51°22.688 3°12.958 -999 321 13.6 101150 91
2006-05-08 12:53 51°22.663 3°12.934 -999 13 13.7 101140 92
2006-05-08 12:54 51°22.639 3°12.984 -999 64 13.7 101140 91
2006-05-08 12:55 51°22.63 3°13.041 -999 69 13.7 101150 91
2006-05-08 12:56 51°22.637 3°13.04 -999 79 13.7 101140 91
2006-05-08 12:57 51°22.645 3°13.033 -999 83 13.7 101150 91
2006-05-08 12:58 51°22.654 3°13.021 -999 101 13.7 101150 91
2006-05-08 12:59 51°22.664 3°13.004 -999 102 13.7 101160 91
2006-05-08 13:00 51°22.674 3°12.984 -999 114 13.7 101160 91
2006-05-08 13:01 51°22.685 3°12.962 -999 122 13.6 101150 91
2006-05-08 13:02 51°22.695 3°12.941 -999 118 13.7 101160 92
2006-05-08 13:03 51°22.706 3°12.921 -999 129 13.7 101160 92
2006-05-08 13:04 51°22.716 3°12.9 -999 107 13.6 101160 92
2006-05-08 13:05 51°22.725 3°12.878 -999 116 13.6 101160 92
2006-05-08 13:06 51°22.734 3°12.857 -999 124 13.6 101170 92
2006-05-08 13:07 51°22.743 3°12.834 -999 113 13.6 101160 92
2006-05-08 13:08 51°22.752 3°12.815 -999 119 13.6 101160 93
2006-05-08 13:09 51°22.773 3°12.831 -999 135 13.5 101170 93
2006-05-08 13:10 51°22.857 3°12.817 -999 239 13.6 101180 93
2006-05-08 13:11 51°22.884 3°12.642 -999 315 13.6 101180 93
2006-05-08 13:12 51°22.831 3°12.382 -999 315 13.6 101150 92
2006-05-08 13:13 51°22.762 3°12.05 -999 315 13.6 101150 92
2006-05-08 13:14 51°22.691 3°11.713 -999 318 13.6 101140 92
2006-05-08 13:15 51°22.603 3°11.393 -999 325 13.5 101120 93
2006-05-08 13:16 51°22.51 3°11.074 -999 327 13.6 101140 93
2006-05-08 13:17 51°22.41 3°10.752 -999 324 13.6 101140 93
2006-05-08 13:18 51°22.326 3°10.424 -999 318 13.6 101150 93
2006-05-08 13:19 51°22.277 3°10.059 -999 327 13.6 101130 93
2006-05-08 13:20 51°22.234 3°9.715 -999 327 13.6 101130 93
2006-05-08 13:21 51°22.178 3°9.351 -999 322 13.5 101130 93
2006-05-08 13:22 51°22.132 3°8.994 -999 323 13.4 101140 94
2006-05-08 13:23 51°22.088 3°8.651 -999 322 13.3 101140 94
2006-05-08 13:24 51°22.036 3°8.286 -999 321 13.2 101140 95
2006-05-08 13:25 51°21.987 3°7.946 -999 318 13.1 101140 95
2006-05-08 13:26 51°21.956 3°7.588 -999 325 13.1 101150 96
2006-05-08 13:27 51°21.933 3°7.228 -999 325 13 101150 96
2006-05-08 13:28 51°21.888 3°6.875 -999 328 13 101140 96
2006-05-08 13:29 51°21.799 3°6.533 -999 329 13 101140 97
2006-05-08 13:30 51°21.718 3°6.204 -999 328 12.9 101140 97
2006-05-08 13:31 51°21.64 3°5.873 -999 327 12.9 101150 97
2006-05-08 13:32 51°21.55 3°5.532 -999 327 12.9 101140 97
2006-05-08 13:33 51°21.473 3°5.196 -999 325 12.9 101140 98
2006-05-08 13:34 51°21.395 3°4.875 -999 320 12.9 101140 98
2006-05-08 13:35 51°21.317 3°4.543 -999 320 12.9 101150 98
2006-05-08 13:36 51°21.239 3°4.211 -999 320 12.9 101160 98
2006-05-08 13:37 51°21.166 3°3.864 -999 323 12.9 101170 98
2006-05-08 13:38 51°21.082 3°3.539 -999 326 12.9 101160 98
2006-05-08 13:39 51°21.007 3°3.221 -999 327 12.9 101160 99
2006-05-08 13:40 51°20.926 3°2.884 -999 329 12.9 101160 99
2006-05-08 13:41 51°20.843 3°2.546 -999 324 12.9 101170 99
2006-05-08 13:42 51°20.758 3°2.224 -999 326 12.9 101170 99
2006-05-08 13:43 51°20.677 3°1.888 -999 325 12.8 101170 99
2006-05-08 13:44 51°20.595 3°1.558 -999 321 12.8 101180 99
2006-05-08 13:45 51°20.517 3°1.231 -999 322 12.9 101180 99
2006-05-08 13:46 51°20.438 3°0.902 -999 325 12.8 101180 99
2006-05-08 13:47 51°20.36 3°0.573 -999 321 12.8 101180 99
2006-05-08 13:48 51°20.28 3°0.252 -999 322 12.8 101180 99
2006-05-08 13:49 51°20.2 2°59.916 -999 324 12.8 101180 99
2006-05-08 13:50 51°20.118 2°59.588 -999 328 12.8 101180 99
2006-05-08 13:51 51°20.036 2°59.257 -999 326 12.8 101180 99
2006-05-08 13:52 51°19.958 2°58.931 -999 331 12.8 101170 100
2006-05-08 13:53 51°19.874 2°58.607 -999 330 12.8 101170 100
2006-05-08 13:54 51°19.794 2°58.274 -999 325 12.8 101180 100
2006-05-08 13:55 51°19.715 2°57.945 -999 329 12.7 101170 100
2006-05-08 13:56 51°19.638 2°57.608 -999 332 12.7 101180 100
2006-05-08 13:57 51°19.555 2°57.278 -999 330 12.7 101160 100
2006-05-08 13:58 51°19.47 2°56.947 -999 332 12.7 101170 100
2006-05-08 13:59 51°19.385 2°56.616 -999 327 12.7 101170 100
2006-05-08 14:00 51°19.299 2°56.285 -999 324 12.7 101170 100
2006-05-08 14:01 51°19.221 2°55.951 -999 327 12.7 101170 100
2006-05-08 14:02 51°19.142 2°55.619 -999 324 12.7 101190 100
2006-05-08 14:03 51°19.066 2°55.284 -999 328 12.7 101190 100
2006-05-08 14:04 51°18.987 2°54.95 -999 325 12.7 101180 100
2006-05-08 14:05 51°18.906 2°54.624 -999 325 12.7 101180 100
2006-05-08 14:06 51°18.828 2°54.283 -999 321 12.7 101180 100
2006-05-08 14:07 51°18.75 2°53.948 -999 324 12.7 101190 100
2006-05-08 14:08 51°18.674 2°53.613 -999 322 12.6 101180 100
2006-05-08 14:09 51°18.595 2°53.28 -999 320 12.7 101190 100
2006-05-08 14:10 51°18.51 2°52.957 -999 331 12.7 101190 100
2006-05-08 14:11 51°18.4 2°52.643 -999 326 12.6 101190 100
2006-05-08 14:12 51°18.258 2°52.373 -999 337 12.6 101190 100
2006-05-08 14:13 51°18.077 2°52.188 -999 348 12.6 101190 100
2006-05-08 14:14 51°17.869 2°52.158 -999 353 12.6 101190 100
2006-05-08 14:15 51°17.653 2°52.151 -999 356 12.7 101200 100
2006-05-08 14:16 51°17.447 2°52.226 -999 3 12.7 101190 100
2006-05-08 14:17 51°17.245 2°52.331 -999 1 12.7 101190 100
2006-05-08 14:18 51°17.043 2°52.436 -999 3 12.8 101200 100
2006-05-08 14:19 51°16.837 2°52.545 -999 3 12.8 101200 100
2006-05-08 14:20 51°16.642 2°52.657 -999 5 12.9 101200 100
2006-05-08 14:21 51°16.444 2°52.767 -999 4 12.9 101200 100
2006-05-08 14:22 51°16.248 2°52.878 -999 7 12.9 101200 100
2006-05-08 14:23 51°16.055 2°53.004 -999 7 13 101200 100
2006-05-08 14:24 51°15.869 2°53.164 -999 11 13 101200 100
2006-05-08 14:25 51°15.687 2°53.319 -999 12 13 101210 100
2006-05-08 14:26 51°15.506 2°53.485 -999 11 13 101200 100
2006-05-08 14:27 51°15.334 2°53.67 -999 17 13.1 101210 100
2006-05-08 14:28 51°15.17 2°53.875 -999 17 13.2 101210 100
2006-05-08 14:29 51°15.01 2°54.075 -999 13 13.2 101220 100
2006-05-08 14:30 51°14.846 2°54.278 -999 9 13.3 101220 100
2006-05-08 14:31 51°14.684 2°54.474 -999 17 13.3 101220 100
2006-05-08 14:32 51°14.536 2°54.684 -999 18 13.3 101210 100
2006-05-08 14:33 51°14.415 2°54.921 -999 24 13.4 101210 100
2006-05-08 14:34 51°14.317 2°55.157 -999 20 13.4 101230 100
2006-05-08 14:35 51°14.226 2°55.317 -999 11 13.4 101230 100
2006-05-08 14:36 51°14.127 2°55.417 -999 4 13.5 101230 100
2006-05-08 14:37 51°14.052 2°55.468 -999 357 13.4 101230 100
2006-05-08 14:38 51°13.989 2°55.514 -999 354 13.5 101240 100
2006-05-08 14:39 51°13.925 2°55.555 -999 358 13.4 101240 100
2006-05-08 14:40 51°13.848 2°55.605 -999 3 13.5 101240 100
2006-05-08 14:41 51°13.772 2°55.682 -999 8 13.5 101240 100
2006-05-08 14:42 51°13.711 2°55.784 -999 20 13.5 101240 99
2006-05-08 14:43 51°13.667 2°55.883 -999 13 13.5 101240 100
2006-05-08 14:44 51°13.632 2°55.967 -999 21 13.5 101240 99
2006-05-08 14:45 51°13.613 2°56.04 -999 18 13.5 101240 99
2006-05-08 14:46 51°13.606 2°56.087 -999 29 13.5 101250 99
2006-05-08 14:47 51°13.603 2°56.097 -999 41 13.5 101250 99
2006-05-08 14:48 51°13.603 2°56.099 -999 51 13.5 101250 99
2006-05-08 14:49 51°13.603 2°56.099 -999 61 13.5 101250 99
2006-05-08 14:50 51°13.603 2°56.098 -999 360 13.5 101250 99